{"data":{"norad_id":56525,"epoch":"2026-05-25T04:00:03.998880Z","epoch_age_seconds":63705,"freshness":"FRESH","line1":"1 56525U 23065Y   26145.16671295  .00018690  00000+0  83792-3 0  9999","line2":"2 56525  43.0005 151.0177 0001292 252.3708  92.5033 15.20906315  5784","mean_motion":15.20906315,"eccentricity":0.0001292,"inclination_deg":43.0005,"raan_deg":151.0177,"arg_perigee_deg":252.3708,"mean_anomaly_deg":92.5033,"bstar":0.00083792,"rev_number":578,"period_min":94.680387989578,"perigee_km":502.21648977835,"apogee_km":503.99460285232,"semimajor_km":6881.2425463153,"source":"CELESTRAK","updated_at":"2026-05-25T13:38:18.110571Z"}}